Hourly Weather Roundup
Issued by NWS Central Illinois

Home | Current Version | Previous Version | Graphics & Text | Print | Product List | Glossary On
Versions: 1 2 3 4 5 6 7 8 9 10 11 12 13 14 15 16 17 18 19 20 21 22 23 24 25 26 27 28 29 30 31 32 33 34 35 36 37 38 39 40 41 42 43 44 45 46 47 48 49 50
000
NZUS43 KILX 231210
HWRILX

Area Weather Roundup
National Weather Service Lincoln IL
700 AM CDT WED AUG 23 2017

NOTE:  "FAIR" indicates few or no clouds below 12,000 feet, with
       no sigificant weather and/or obstructions to visibility.


CITY           SKY/WX    TMP DP  RH WIND       PRES   REMARKS
Bloomington    CLEAR     56  52  86 NW7       30.09R
6HR MIN TEMP:  54; 6HR MAX TEMP:  61;

Champaign      CLEAR     55  52  89 NW5       30.07R
6HR MIN TEMP:  53; 6HR MAX TEMP:  59;

Danville       CLEAR     56  53  92 NW5       30.03R
6HR MIN TEMP:  54; 6HR MAX TEMP:  59;

Decatur        CLEAR     59  53  80 NW9       30.08R
6HR MIN TEMP:  58; 6HR MAX TEMP:  65;

Effingham      CLEAR     56  56 100 W3        30.09R
6HR MIN TEMP:  55; 6HR MAX TEMP:  62;

Flora          CLEAR     60  57  90 NW6       30.07R
6HR MIN TEMP:  59; 6HR MAX TEMP:  65;

Galesburg      CLEAR     52  51  99 W5        30.10S
6HR MIN TEMP:  51; 6HR MAX TEMP:  55;

Jacksonville   CLEAR     54  52  95 CALM      30.10R
6HR MIN TEMP:  53; 6HR MAX TEMP:  57;

Lacon          CLEAR     52  52  99 CALM      30.07S
6HR MIN TEMP:  50; 6HR MAX TEMP:  56;

Lawrenceville  CLEAR     59  57  93 CALM      30.05R
6HR MIN TEMP:  58; 6HR MAX TEMP:  64;

Litchfield     CLEAR     55  53  95 NW5       30.09R
6HR MIN TEMP:  53; 6HR MAX TEMP:  58; 6HR PCP:  0.01;

$$


CITY           SKY/WX    TMP DP  RH WIND       PRES   REMARKS
Lincoln        CLEAR     57  55  93 CALM      30.08S
6HR MIN TEMP:  57; 6HR MAX TEMP:  62;

Macomb         CLEAR     53  52  97 W5        30.13R
6HR MIN TEMP:  52; 6HR MAX TEMP:  56;

Mattoon        CLEAR     56  55  97 W3        30.06R
6HR MIN TEMP:  54; 6HR MAX TEMP:  60;

Mt Carmel AP   CLEAR     57  55  95 CALM      30.06R
6HR MIN TEMP:  56; 6HR MAX TEMP:  62;

Olney-Noble AP CLEAR     56  55  93 CALM      30.07R
Paris AP       PTCLDY    54  53  98 NW5       30.07R
6HR MIN TEMP:  52; 6HR MAX TEMP:  57;

Peoria         CLEAR     56  53  90 NW3       30.09R
6HR MIN TEMP:  56; 6HR MAX TEMP:  61;

Pontiac        CLEAR     54  54  99 CALM      30.08R
6HR MIN TEMP:  52; 6HR MAX TEMP:  56;

Rantoul        PTCLDY    58  55  89 NW6       30.07R
6HR MIN TEMP:  57; 6HR MAX TEMP:  61;

Robinson       CLEAR     54  54 100 CALM      30.06S
6HR MIN TEMP:  53; 6HR MAX TEMP:  60;

Springfield    CLEAR     57  55  93 NW7       30.09R
6HR MIN TEMP:  55; 6HR MAX TEMP:  61;

Taylorville    CLEAR     54  54  99 CALM      30.08S
6HR MIN TEMP:  53; 6HR MAX TEMP:  60;

$$

...REGIONAL REPORTS...


CITY           SKY/WX    TMP DP  RH WIND       PRES   REMARKS
Chicago O`Hare CLEAR     61  50  67 W9        30.03R
Kankakee       CLEAR     54  52  95 W5        30.06R
Moline         CLEAR     53  51  93 CALM      30.09R
Mount Sterling CLEAR     54  52  92 W5        30.11R
Mount Vernon     N/A     56  55  97 CALM      30.08R
Pittsfield     PTCLDY    57  53  87 NW5       30.12R
Quincy         CLEAR     55  52  89 NW5       30.11R
Rockford       PTCLDY    55  50  83 CALM      30.07R
$$


CITY           SKY/WX    TMP DP  RH WIND       PRES   REMARKS
Burlington     CLEAR     55  53  93 NW6       30.10S
Cedar Rapids   CLEAR     48  47  96 W7        30.10S
Des Moines     PTCLDY    55  53  93 CALM      30.14R
Kirksville     CLEAR     53  32  44 NW3       30.14S
Ottumwa        CLEAR     53  52  96 W6        30.12S
St Louis       PTCLDY    61  56  83 W3        30.10S
$$


CITY           SKY/WX    TMP DP  RH WIND       PRES   REMARKS
Terre Haute    PTCLDY    58  54  86 N3        30.05R
Evansville     CLEAR     63  58  83 N6        30.05R
Indianapolis   MOCLDY    60  57  89 W3        30.03R
Lafayette      CLEAR     55  55 100 CALM      30.04R
Madison        CLEAR     56  51  84 NW6       30.04R
Milwaukee      CLEAR     62  51  67 NW8       30.01R
$$






USA.gov is the U.S. government's official web portal to all federal, state and local government web resources and services.